Tracking 31028 objects as of 17-Jul-2025
HD Live streaming from Space Station
objects crossing your sky now

STARLINK-3645

Track STARLINK-3645 now!
10-day predictions
STARLINK-3645 is classified as:


NORAD ID: 51986
Int'l Code: 2022-025AG
Perigee: 546.0 km
Apogee: 547.8 km
Inclination: 53.2 °
Period: 95.4 minutes
Semi major axis: 6917 km
RCS: Unknown
Launch date: March 9, 2022
Source: United States (US)
Launch site: AIR FORCE EASTERN TEST RANGE (AFETR)
Your satellite tracking list
Your tracking list is empty




NASA's NSSDC Master Catalog

Two Line Element Set (TLE):
1 51986U 22025AG  25197.87057967  .00000076  00000-0  22849-4 0  9995
2 51986  53.2191  17.6004 0001331  89.1560 270.9584 15.08832000185463
Source of the keplerian elements: AFSPC